Location: Unspecified
(50.7693°N, 0.0000°E)
Time: 20:35:38
(UTC+00:00)

A-11 Canister half - Pass Details

Date: 23 June 2019
Orbit: 1526 x 1683 km, 47.3° (Epoch: 21 July)

Event Time Altitude Azimuth Distance (km) Brightness Sun altitude
Rises 08:35:23 0° 278° (W) 4,698 11.1 41.9°
Reaches altitude 10° 08:38:28 10° 276° (W) 3,705 10.7 42.4°
Maximum altitude 08:47:35 63° 198° (SSW) 1,681 9.9 43.7°
Drops below altitude 10° 08:56:44 10° 121° (ESE) 3,712 12.0 45.1°
Sets 08:59:49 0° 118° (ESE) 4,707 12.3 45.6°
